Timestamp[UTC];2m Lufttemperatur [degC] (tas);Stations-Luftdruck [Pa] (ps);relative Luftfeuchtigkeit [%] (hurs);spezifische Luftfeuchtigkeit [kg/kg] (huss);Niederschlagsmenge [mm] (pr);Windgeschwindigkeit in 2m [m/s] (sfcWind);Windrichtung [deg];maximale Windgeschwindigkeit [m/s] (wsgsmax);u-Windkomponente [m/s] (uas);v-Windkomponente [m/s] (vas);Sonneneinstrahlung [W/m2];Blitzrate [n];Blitzentfernung [km];Bodenfeuchte in 5cm Tiefe [vol%];Bodenfeuchte in 15cm Tiefe [vol%];Bodenfeuchte in 30cm Tiefe [vol%];Bodenfeuchte in 60cm Tiefe [vol%];Bodentemperatur in 5cm Tiefe [degC];Bodentemperatur in 15cm Tiefe [degC];Bodentemperatur in 30cm Tiefe [degC];Bodentemperatur in 60cm Tiefe [degC];Matrixpotential in 30cm Tiefe [kPa];Bodenfeuchte aus CRNS [vol%] (mrso);Neutronen Anzahl [N/h]
2023-10-01 00:00:00;8,8;101842;97;0,0067;0,02;0,8;199;1,0;-0,24;-0,68;0;0;nan;27,8;26,0;31,4;27,5;12,6;14,3;15,4;15,6;-19,1;31,8;1317
2023-10-01 01:00:00;9,2;101814;97;0,0069;0,02;0,7;185;1,0;-0,06;-0,73;0;0;nan;27,8;26,0;31,4;27,5;12,4;14,1;15,3;15,6;-19,2;31,7;1318
2023-10-01 02:00:00;9,0;101770;97;0,0069;0,02;0,7;180;0,9;0,01;-0,7;0;0;nan;27,8;26,0;31,4;27,5;12,2;13,9;15,2;15,6;-19,2;31,4;1322
2023-10-01 03:00:00;9,4;101758;96;0,007;0,0;0,6;188;0,9;-0,08;-0,59;0;0;nan;27,7;26,0;31,4;27,5;12,0;13,7;15,2;15,6;-19,2;31,2;1323
2023-10-01 04:00:00;9,1;101770;97;0,0069;0,02;0,3;177;0,5;0,02;-0,3;0;0;nan;27,7;25,9;31,4;27,5;11,9;13,6;15,1;15,6;-19,2;30,7;1330
2023-10-01 05:00:00;8,7;101762;98;0,0068;0,0;0,4;173;0,6;0,04;-0,32;2;0;nan;27,8;25,9;31,4;27,5;11,8;13,4;15,0;15,6;-19,2;30,6;1330
2023-10-01 06:00:00;9,5;101765;99;0,0072;0,02;0,3;316;0,6;-0,1;0,1;70;0;nan;27,8;25,9;31,4;27,5;11,7;13,3;14,9;15,6;-19,3;30,6;1331
2023-10-01 07:00:00;14,9;101734;98;0,0102;0,0;0,8;234;1,4;-0,6;-0,43;216;0;nan;27,8;25,9;31,4;27,5;11,9;13,2;14,8;15,6;-19,3;30,5;1332
2023-10-01 08:00:00;17,9;101720;85;0,0107;0,0;2,1;223;3,4;-1,43;-1,54;311;0;nan;27,8;25,9;31,4;27,5;12,7;13,2;14,8;15,5;-19,3;30,7;1329
2023-10-01 09:00:00;20,1;101722;74;0,0107;0,0;2,4;219;3,6;-1,46;-1,81;431;0;nan;27,8;25,9;31,4;27,5;13,7;13,4;14,7;15,5;-19,3;30,7;1330
2023-10-01 10:00:00;21,4;101697;70;0,011;0,0;2,5;215;4,4;-1,4;-2,04;500;0;nan;27,9;25,9;31,4;27,5;15,0;13,8;14,6;15,5;-19,3;30,3;1334
2023-10-01 11:00:00;22,2;101675;66;0,0109;0,0;2,9;218;5,0;-1,78;-2,24;493;0;nan;27,8;25,9;31,4;27,5;16,1;14,3;14,6;15,5;-19,4;30,2;1336
2023-10-01 12:00:00;23,0;101633;63;0,0109;0,0;3,0;212;4,6;-1,58;-2,53;467;0;nan;27,7;25,9;31,4;27,5;17,1;14,8;14,7;15,5;-19,4;30,6;1331
2023-10-01 13:00:00;23,5;101594;59;0,0105;0,0;2,5;230;3,9;-1,89;-1,6;380;0;nan;27,6;25,9;31,4;27,5;17,8;15,4;14,7;15,5;-19,5;30,7;1329
2023-10-01 14:00:00;23,9;101568;57;0,0105;0,0;2,0;230;3,6;-1,5;-1,27;320;0;nan;27,5;25,9;31,4;27,5;18,0;15,8;14,8;15,4;-19,5;30,7;1330
2023-10-01 15:00:00;24,2;101532;56;0,0105;0,0;1,3;225;2,2;-0,88;-0,89;221;0;nan;27,4;25,9;31,3;27,5;17,9;16,2;14,9;15,4;-19,5;30,4;1333
2023-10-01 16:00:00;23,4;101530;62;0,011;0,0;1,0;209;1,6;-0,48;-0,86;106;0;nan;27,3;25,9;31,3;27,5;17,8;16,4;15,0;15,4;-19,5;30,1;1336
2023-10-01 17:00:00;20,8;101542;69;0,0104;0,0;1,1;189;1,5;-0,18;-1,11;8;0;nan;27,3;25,9;31,3;27,5;17,3;16,5;15,2;15,4;-19,6;30,4;1333
2023-10-01 18:00:00;17,6;101565;82;0,0102;0,0;0,5;174;0,9;0,05;-0,51;0;0;nan;27,2;25,9;31,3;27,5;16,7;16,4;15,2;15,4;-19,6;30,4;1333
2023-10-01 19:00:00;15,4;101570;91;0,0098;0,0;0,6;179;1,1;0,01;-0,63;0;0;nan;27,2;25,9;31,3;27,5;16,1;16,3;15,4;15,4;-19,7;30,3;1335
2023-10-01 20:00:00;14,3;101548;94;0,0095;0,0;0,7;176;1,0;0,05;-0,71;0;0;nan;27,1;25,8;31,3;27,5;15,6;16,1;15,4;15,4;-19,7;30,5;1331
2023-10-01 21:00:00;13,6;101523;95;0,0091;0,0;0,4;194;0,6;-0,09;-0,35;0;0;nan;27,1;25,8;31,3;27,5;15,2;15,9;15,5;15,4;-19,8;29,7;1342
2023-10-01 22:00:00;13,1;101512;96;0,0089;0,0;0,5;187;0,9;-0,06;-0,5;0;0;nan;27,1;25,8;31,3;27,5;14,8;15,6;15,5;15,4;-19,8;29,5;1344
2023-10-01 23:00:00;12,5;101504;97;0,0086;0,0;0,6;174;1,0;0,05;-0,53;0;0;nan;27,1;25,8;31,3;27,5;14,5;15,4;15,5;15,4;-19,8;29,7;1341
2023-10-02 00:00:00;12,2;101490;98;0,0085;0,0;0,5;166;0,7;0,12;-0,52;0;0;nan;27,0;25,8;31,3;27,5;14,2;15,2;15,5;15,4;-19,8;29,5;1344
2023-10-02 01:00:00;12,0;101478;98;0,0085;0,0;0,4;179;0,6;0,01;-0,44;0;0;nan;27,0;25,7;31,3;27,5;13,9;15,0;15,4;15,4;-20,0;29,6;1343
2023-10-02 02:00:00;11,8;101462;98;0,0084;0,0;0,4;208;0,6;-0,17;-0,33;0;0;nan;27,0;25,7;31,3;27,5;13,7;14,9;15,4;15,4;-20,0;29,6;1343
2023-10-02 03:00:00;11,6;101426;98;0,0082;0,0;0,4;198;0,6;-0,12;-0,35;0;0;nan;27,0;25,7;31,3;27,5;13,5;14,7;15,3;15,4;-19,9;29,3;1346
2023-10-02 04:00:00;11,4;101396;98;0,0081;0,0;0,3;203;0,4;-0,09;-0,22;0;0;nan;27,0;25,7;31,3;27,5;13,3;14,5;15,3;15,4;-19,9;29,9;1339
2023-10-02 05:00:00;10,9;101395;98;0,0079;0,0;0,2;230;0,3;-0,07;-0,06;4;0;nan;27,0;25,7;31,3;27,5;13,1;14,4;15,2;15,4;-20,0;30,3;1335
2023-10-02 06:00:00;11,3;101408;99;0,0081;0,0;0,4;193;0,6;-0,09;-0,37;48;0;nan;27,0;25,6;31,3;27,5;13,0;14,2;15,2;15,4;-20,0;30,6;1331
2023-10-02 07:00:00;14,5;101384;100;0,0102;0,0;0,2;280;0,4;-0,11;0,02;180;0;nan;27,0;25,6;31,3;27,5;13,2;14,1;15,1;15,4;-20,0;30,3;1334
2023-10-02 08:00:00;20,3;101337;91;0,0134;0,0;0,8;282;1,1;-0,68;0,14;287;0;nan;27,0;25,6;31,3;27,4;13,7;14,1;15,0;15,4;-20,0;29,9;1339
2023-10-02 09:00:00;23,2;101297;69;0,0121;0,0;1,4;217;2,3;-0,85;-1,12;399;0;nan;27,0;25,6;31,3;27,4;14,7;14,3;15,0;15,4;-20,0;30,2;1336
2023-10-02 10:00:00;24,3;101278;64;0,012;0,0;1,9;227;3,2;-1,35;-1,26;470;0;nan;27,0;25,6;31,2;27,4;15,9;14,6;15,0;15,4;-20,2;30,5;1332
2023-10-02 11:00:00;25,4;101255;62;0,0124;0,0;1,7;222;3,0;-1,13;-1,26;512;0;nan;27,1;25,6;31,2;27,4;17,1;15,1;15,0;15,4;-20,1;30,8;1328
2023-10-02 12:00:00;25,7;101230;60;0,0123;0,0;2,0;224;3,1;-1,38;-1,41;392;0;nan;27,1;25,6;31,2;27,4;18,3;15,6;15,0;15,4;-20,2;30,2;1335
2023-10-02 13:00:00;25,9;101169;59;0,0121;0,0;1,8;213;2,7;-0,97;-1,52;343;0;nan;27,0;25,6;31,2;27,4;18,8;16,2;15,1;15,4;-20,2;30,3;1334
2023-10-02 14:00:00;25,8;101112;61;0,0126;0,0;1,6;201;2,7;-0,57;-1,52;278;0;nan;26,9;25,6;31,2;27,4;19,1;16,6;15,2;15,4;-20,2;30,1;1337
2023-10-02 15:00:00;25,8;101062;64;0,0131;0,0;1,1;194;1,6;-0,25;-1,01;199;0;nan;26,8;25,6;31,2;27,4;19,1;17,0;15,3;15,4;-20,2;30,1;1336
2023-10-02 16:00:00;23,5;101012;71;0,0127;0,0;1,1;181;1,5;-0,01;-1,03;63;0;nan;26,7;25,6;31,2;27,4;18,8;17,2;15,4;15,3;-20,2;30,2;1335
2023-10-02 17:00:00;19,8;100998;81;0,0116;0,0;0,6;181;1,1;-0,01;-0,54;2;0;nan;26,6;25,6;31,2;27,4;18,1;17,3;15,5;15,3;-20,3;30,1;1337
2023-10-02 18:00:00;18,4;100957;80;0,0105;0,0;0,8;192;1,1;-0,16;-0,76;0;0;nan;26,6;25,6;31,2;27,4;17,4;17,2;15,6;15,3;-20,3;30,3;1335
2023-10-02 19:00:00;15,9;100943;87;0,0098;0,0;1,0;172;1,4;0,13;-0,9;0;0;nan;26,6;25,6;31,2;27,4;16,7;17,0;15,7;15,3;-20,4;29,9;1339
2023-10-02 20:00:00;15,5;100883;88;0,0096;0,0;0,7;169;1,3;0,15;-0,72;0;0;nan;26,5;25,6;31,2;27,4;16,2;16,7;15,8;15,3;-20,4;29,8;1340
2023-10-02 21:00:00;15,4;100808;89;0,0097;0,0;0,8;167;1,2;0,16;-0,67;0;0;nan;26,5;25,5;31,2;27,4;15,7;16,5;15,8;15,3;-20,4;30,7;1330
2023-10-02 22:00:00;14,7;100732;92;0,0095;0,0;0,5;183;0,9;-0,01;-0,32;0;0;nan;26,5;25,5;31,2;27,4;15,5;16,2;15,8;15,3;-20,4;31,0;1326
2023-10-02 23:00:00;15,5;100630;91;0,01;0,0;1,0;197;1,5;-0,27;-0,9;0;0;nan;26,4;25,5;31,2;27,4;15,2;16,0;15,8;15,4;-20,4;31,0;1326
2023-10-03 00:00:00;17,6;100535;84;0,0105;0,0;1,2;204;2,3;-0,41;-0,93;0;0;nan;26,5;25,5;31,2;27,4;15,2;15,8;15,8;15,4;-20,5;31,1;1325
2023-10-03 01:00:00;21,4;100415;70;0,0112;0,0;2,7;201;3,9;-0,98;-2,5;0;0;nan;26,5;25,5;31,2;27,4;15,4;15,7;15,8;15,4;-20,5;31,3;1323
2023-10-03 02:00:00;21,9;100341;66;0,0109;0,0;2,9;200;4,1;-1,0;-2,71;0;0;nan;26,5;25,4;31,2;27,4;15,6;15,7;15,7;15,4;-20,5;31,7;1318
2023-10-03 03:00:00;22,4;100338;64;0,0108;0,0;3,3;223;4,7;-2,17;-2,34;0;0;nan;26,4;25,4;31,1;27,4;15,8;15,8;15,7;15,4;-20,6;32,0;1314
2023-10-03 04:00:00;21,5;100402;69;0,011;0,0;3,3;237;6,0;-2,74;-1,76;0;0;nan;26,4;25,4;31,1;27,4;15,9;15,8;15,7;15,4;-20,6;32,1;1313
2023-10-03 05:00:00;20,6;100455;74;0,0113;0,0;3,4;239;7,0;-2,91;-1,72;0;0;nan;26,4;25,4;31,1;27,4;16,0;15,9;15,7;15,4;-20,6;31,7;1318
2023-10-03 06:00:00;19,7;100541;78;0,0112;0,0;3,8;250;6,5;-3,53;-1,27;8;0;nan;26,4;25,4;31,1;27,4;16,1;15,9;15,7;15,4;-20,8;31,3;1323
2023-10-03 07:00:00;19,3;100586;81;0,0112;0,0;3,7;227;5,7;-2,75;-2,52;112;0;nan;26,3;25,4;31,1;27,4;16,2;16,0;15,7;15,4;-20,8;31,4;1322
2023-10-03 08:00:00;19,5;100650;81;0,0114;0,0;3,9;239;6,5;-3,35;-1,97;83;0;nan;26,4;25,4;31,1;27,4;16,4;16,0;15,7;15,4;-20,7;31,7;1318
2023-10-03 09:00:00;19,5;100690;82;0,0115;0,0;4,9;246;8,1;-4,43;-2,0;191;0;nan;26,4;25,4;31,1;27,4;16,6;16,1;15,7;15,4;-20,8;31,5;1320
2023-10-03 10:00:00;17,3;100766;91;0,0111;1,33;3,8;259;7,5;-3,71;-0,74;101;0;nan;26,5;25,4;31,1;27,4;16,8;16,2;15,7;15,5;-20,8;31,7;1317
2023-10-03 11:00:00;16,6;100858;92;0,0107;0,0;3,2;284;6,5;-3,13;0,79;114;0;nan;27,1;25,4;31,1;27,4;16,8;16,3;15,7;15,5;-20,8;31,1;1325
2023-10-03 12:00:00;16,4;101010;91;0,0104;0,0;2,7;274;5,5;-2,6;0,19;203;0;nan;27,3;25,3;31,1;27,4;16,6;16,3;15,8;15,5;-20,9;31,4;1321
2023-10-03 13:00:00;16,8;101078;84;0,0099;0,05;3,0;281;7,4;-2,95;0,56;178;0;nan;27,4;25,3;31,1;27,4;16,7;16,4;15,8;15,5;-20,8;31,5;1320
2023-10-03 14:00:00;16,5;101224;77;0,0089;0,0;3,6;283;7,9;-3,5;0,83;135;0;nan;27,4;25,3;31,1;27,4;16,6;16,4;15,8;15,5;-20,9;31,7;1318
2023-10-03 15:00:00;16,1;101372;79;0,0089;0,0;2,6;291;5,5;-2,36;0,92;154;0;nan;27,4;25,3;31,1;27,4;16,3;16,3;15,8;15,5;-20,9;32,0;1314
2023-10-03 16:00:00;15,6;101522;75;0,0082;0,0;2,5;270;5,0;-2,44;0,02;65;0;nan;27,3;25,3;31,1;27,4;16,1;16,2;15,9;15,5;-21,0;31,9;1315
2023-10-03 17:00:00;14,4;101658;76;0,0076;0,0;1,8;253;3,5;-1,65;-0,5;2;0;nan;27,2;25,3;31,1;27,4;15,5;16,1;15,9;15,5;-21,0;31,8;1317
2023-10-03 18:00:00;13,3;101737;79;0,0074;0,0;1,6;234;2,8;-1,25;-0,89;0;0;nan;27,1;25,3;31,1;27,4;15,0;15,9;15,9;15,5;-21,0;31,3;1322
2023-10-03 19:00:00;13,1;101812;79;0,0073;0,0;1,9;233;3,6;-1,53;-1,17;0;0;nan;27,1;25,3;31,1;27,4;14,5;15,7;15,8;15,5;-21,0;31,6;1319
2023-10-03 20:00:00;13,5;101862;78;0,0074;0,0;2,6;236;4,2;-2,13;-1,42;0;0;nan;27,0;25,3;31,1;27,4;14,2;15,5;15,8;15,5;-21,0;31,6;1318
2023-10-03 21:00:00;13,5;101910;79;0,0075;0,0;2,7;233;4,4;-2,13;-1,61;0;0;nan;27,0;25,3;31,1;27,4;13,9;15,2;15,8;15,5;-21,0;30,7;1330
2023-10-03 22:00:00;13,6;101934;79;0,0075;0,0;2,9;236;4,8;-2,38;-1,61;0;0;nan;26,9;25,3;31,1;27,4;13,7;15,1;15,7;15,5;-21,0;30,3;1334
2023-10-03 23:00:00;13,0;101930;82;0,0075;0,0;2,6;233;4,7;-2,08;-1,56;0;0;nan;26,9;25,3;31,0;27,4;13,6;14,9;15,6;15,5;-21,0;29,8;1341
2023-10-04 00:00:00;12,7;101976;85;0,0077;0,0;3,2;238;6,0;-2,73;-1,73;0;0;nan;26,8;25,3;31,0;27,4;13,4;14,7;15,6;15,5;-21,0;29,6;1343
2023-10-04 01:00:00;12,5;102002;87;0,0077;0,0;3,1;235;5,2;-2,5;-1,78;0;0;nan;26,8;25,3;31,0;27,4;13,2;14,6;15,5;15,5;-21,2;29,5;1344
2023-10-04 02:00:00;12,3;102008;88;0,0077;0,0;2,6;235;4,6;-2,16;-1,52;0;0;nan;26,8;25,3;31,0;27,4;13,1;14,5;15,4;15,5;-21,2;29,2;1347
2023-10-04 03:00:00;12,2;102000;89;0,0077;0,0;3,0;230;4,9;-2,28;-1,94;0;0;nan;26,8;25,3;31,0;27,4;13,0;14,3;15,4;15,5;-21,2;29,2;1348
2023-10-04 04:00:00;11,6;102018;90;0,0076;0,0;2,7;230;5,1;-2,03;-1,71;0;0;nan;26,7;25,3;31,0;27,4;12,9;14,2;15,3;15,5;-21,2;28,9;1351
2023-10-04 05:00:00;11,4;102018;91;0,0075;0,0;2,7;227;4,9;-1,99;-1,85;2;0;nan;26,7;25,3;31,0;27,4;12,7;14,1;15,2;15,5;-21,2;29,0;1350
2023-10-04 06:00:00;11,5;102052;91;0,0075;0,0;2,5;233;4,3;-2,03;-1,53;56;0;nan;26,7;25,2;31,0;27,4;12,6;14,0;15,2;15,5;-21,2;29,0;1350
2023-10-04 07:00:00;12,6;102095;91;0,0081;0,0;3,3;238;6,2;-2,77;-1,75;175;0;nan;26,6;25,2;31,0;27,4;12,6;13,9;15,1;15,5;-21,2;29,2;1348
2023-10-04 08:00:00;14,3;102107;87;0,0087;0,0;3,4;244;5,7;-3,07;-1,48;310;0;nan;26,6;25,2;31,0;27,4;12,9;13,8;15,0;15,5;-21,2;28,9;1351
2023-10-04 09:00:00;15,1;102118;84;0,0088;0,0;3,3;245;5,8;-2,94;-1,36;363;0;nan;26,6;25,2;31,0;27,4;13,5;13,9;15,0;15,5;-21,2;29,1;1350
2023-10-04 10:00:00;15,6;102118;80;0,0087;0,0;3,4;247;6,2;-3,13;-1,35;331;0;nan;26,6;25,2;31,0;27,4;14,1;14,0;14,9;15,5;-21,2;28,8;1353
2023-10-04 11:00:00;16,0;102128;74;0,0083;0,0;3,2;258;5,9;-3,12;-0,69;288;0;nan;26,5;25,2;31,0;27,4;14,6;14,3;14,9;15,5;-21,2;29,7;1342
2023-10-04 12:00:00;16,3;102074;73;0,0082;0,0;3,1;245;6,1;-2,75;-1,27;296;0;nan;26,5;25,2;31,0;27,4;15,0;14,5;14,9;15,5;-21,2;29,9;1339
2023-10-04 13:00:00;16,4;102080;72;0,0082;0,0;2,6;253;4,8;-2,49;-0,75;184;0;nan;26,4;25,2;31,0;27,4;15,2;14,7;14,9;15,4;-21,3;29,6;1343
2023-10-04 14:00:00;16,3;102030;73;0,0083;0,0;2,4;248;4,3;-2,26;-0,9;158;0;nan;26,4;25,2;31,0;27,4;15,1;14,9;14,9;15,4;-21,3;29,6;1343
2023-10-04 15:00:00;16,6;101984;74;0,0085;0,0;1,9;249;3,2;-1,72;-0,67;185;0;nan;26,3;25,2;30,9;27,3;15,2;14,9;14,9;15,4;-21,3;29,6;1343
2023-10-04 16:00:00;15,9;101978;77;0,0085;0,0;1,4;227;2,5;-0,97;-0,91;36;0;nan;26,3;25,2;30,9;27,3;15,1;15,0;15,0;15,4;-21,4;29,5;1344
2023-10-04 17:00:00;14,8;101978;83;0,0085;0,0;1,2;199;2,0;-0,38;-1,13;1;0;nan;26,2;25,2;30,9;27,3;14,9;15,0;15,0;15,4;-21,4;28,9;1351
2023-10-04 18:00:00;14,3;101988;84;0,0084;0,0;1,4;194;2,0;-0,32;-1,33;0;0;nan;26,2;25,2;30,9;27,3;14,6;15,0;15,0;15,4;-21,4;29,0;1350
2023-10-04 19:00:00;14,0;101972;82;0,0081;0,0;2,0;213;3,3;-1,05;-1,65;0;0;nan;26,2;25,2;30,9;27,3;14,3;14,9;15,0;15,4;-21,4;28,6;1355
2023-10-04 20:00:00;13,2;101944;84;0,0079;0,0;1,8;210;2,8;-0,86;-1,5;0;0;nan;26,1;25,1;30,9;27,3;14,0;14,8;15,0;15,3;-21,4;28,4;1359
2023-10-04 21:00:00;12,4;101928;87;0,0076;0,0;1,5;212;2,5;-0,76;-1,24;0;0;nan;26,1;25,1;30,9;27,3;13,7;14,7;15,0;15,3;-21,4;28,8;1353
2023-10-04 22:00:00;13,0;101890;84;0,0077;0,0;1,9;230;3,4;-1,47;-1,23;0;0;nan;26,1;25,1;30,9;27,3;13,5;14,5;15,0;15,3;-21,4;28,7;1354
2023-10-04 23:00:00;12,6;101824;85;0,0076;0,0;1,6;228;2,8;-1,19;-1,06;0;0;nan;26,1;25,1;30,9;27,3;13,3;14,4;15,0;15,3;-21,6;29,1;1349
2023-10-05 00:00:00;13,0;101802;85;0,0078;0,0;2,1;228;4,1;-1,58;-1,4;0;0;nan;26,0;25,1;30,9;27,3;13,1;14,2;15,0;15,3;-21,5;29,1;1350
2023-10-05 01:00:00;13,0;101813;84;0,0078;0,0;1,8;235;3,0;-1,46;-1,02;0;0;nan;26,0;25,1;30,9;27,3;13,1;14,1;14,9;15,3;-21,5;29,3;1347
2023-10-05 02:00:00;12,9;101800;85;0,0077;0,0;2,3;233;4,0;-1,84;-1,38;0;0;nan;26,0;25,1;30,9;27,3;13,0;14,1;14,9;15,3;-21,6;29,3;1347
2023-10-05 03:00:00;12,8;101778;85;0,0077;0,0;2,3;232;3,9;-1,83;-1,45;0;0;nan;26,0;25,1;30,9;27,3;12,9;14,0;14,9;15,3;-21,6;29,4;1346
2023-10-05 04:00:00;12,8;101783;86;0,0078;0,0;2,2;231;4,0;-1,75;-1,41;0;0;nan;26,0;25,0;30,9;27,3;12,9;13,9;14,8;15,3;-21,6;29,3;1346
2023-10-05 05:00:00;12,8;101764;86;0,0078;0,0;2,2;228;3,7;-1,59;-1,44;1;0;nan;26,0;25,0;30,9;27,3;12,8;13,8;14,8;15,3;-21,6;29,4;1346
2023-10-05 06:00:00;13,0;101790;87;0,008;0,0;2,8;235;5,0;-2,25;-1,6;28;0;nan;26,0;25,0;30,9;27,3;12,8;13,8;14,7;15,3;-21,7;29,3;1347
2023-10-05 07:00:00;13,4;101854;87;0,0082;0,0;2,8;237;4,8;-2,36;-1,53;100;0;nan;25,9;25,0;30,9;27,3;12,9;13,8;14,7;15,3;-21,6;29,3;1347
2023-10-05 08:00:00;14,2;101901;86;0,0086;0,0;2,9;235;4,8;-2,42;-1,67;177;0;nan;25,9;25,0;30,9;27,3;13,2;13,8;14,7;15,3;-21,7;29,4;1346
2023-10-05 09:00:00;14,7;101932;84;0,0087;0,0;3,0;241;5,3;-2,6;-1,43;198;0;nan;26,0;25,0;30,9;27,3;13,7;13,8;14,6;15,2;-21,7;29,0;1351
2023-10-05 10:00:00;15,0;101978;83;0,0087;0,0;2,7;241;4,6;-2,37;-1,31;163;0;nan;25,9;25,0;30,9;27,3;14,0;14,0;14,6;15,2;-21,7;28,8;1353
2023-10-05 11:00:00;15,4;101938;83;0,0089;0,0;2,7;245;4,9;-2,45;-1,15;274;0;nan;25,9;25,0;30,9;27,3;14,3;14,1;14,6;15,2;-21,7;28,3;1360
2023-10-05 12:00:00;17,0;101898;76;0,009;0,0;2,8;255;5,4;-2,71;-0,74;423;0;nan;25,9;25,0;30,9;27,3;15,0;14,3;14,6;15,2;-21,7;27,8;1367
2023-10-05 13:00:00;16,8;101936;73;0,0085;0,0;2,8;254;5,2;-2,7;-0,75;258;0;nan;25,8;25,0;30,9;27,3;15,4;14,5;14,6;15,2;-21,8;27,9;1365
2023-10-05 14:00:00;17,3;101908;73;0,0088;0,0;2,7;253;5,2;-2,6;-0,78;309;0;nan;25,8;25,0;30,8;27,3;15,5;14,7;14,6;15,2;-21,8;28,2;1361
2023-10-05 15:00:00;17,2;101910;70;0,0084;0,0;2,2;255;4,0;-2,13;-0,58;205;0;nan;25,8;25,0;30,8;27,3;15,4;14,9;14,7;15,2;-21,8;27,7;1368
2023-10-05 16:00:00;16,7;101932;70;0,0081;0,0;1,8;259;3,2;-1,77;-0,34;77;0;nan;25,7;25,0;30,8;27,3;15,2;15,0;14,7;15,2;-21,9;27,8;1366
2023-10-05 17:00:00;13,4;101970;83;0,0078;0,0;0,9;200;1,2;-0,3;-0,83;2;0;nan;25,7;24,9;30,8;27,3;14,6;15,0;14,7;15,2;-21,9;28,4;1358
2023-10-05 18:00:00;11,1;101968;92;0,0074;0,0;0,9;179;1,2;0,02;-0,86;0;0;nan;25,6;24,9;30,8;27,3;14,0;14,8;14,8;15,1;-21,9;28,5;1356
2023-10-05 19:00:00;10,8;101972;94;0,0075;0,0;0,9;183;1,1;-0,04;-0,86;0;0;nan;25,5;24,9;30,8;27,3;13,6;14,6;14,8;15,1;-21,9;29,0;1351
2023-10-05 20:00:00;11,4;101977;92;0,0076;0,0;0,9;174;1,3;0,1;-0,89;0;0;nan;25,5;24,9;30,8;27,3;13,3;14,4;14,8;15,1;-21,9;29,0;1351
2023-10-05 21:00:00;11,4;102005;93;0,0077;0,0;1,0;185;1,4;-0,09;-1,0;0;0;nan;25,5;24,9;30,8;27,3;13,0;14,2;14,8;15,1;-22,0;29,2;1348
2023-10-05 22:00:00;10,8;101966;93;0,0073;0,0;1,2;182;1,8;-0,03;-1,12;0;0;nan;25,4;24,9;30,8;27,3;12,7;14,0;14,8;15,1;-22,0;29,5;1344
2023-10-05 23:00:00;11,3;101972;92;0,0075;0,0;1,4;201;2,1;-0,5;-1,28;0;0;nan;25,4;24,9;30,8;27,3;12,5;13,8;14,7;15,1;-22,0;29,8;1341
2023-10-06 00:00:00;10,9;101976;93;0,0074;0,0;1,3;194;1,8;-0,31;-1,22;0;0;nan;25,4;24,8;30,8;27,3;12,4;13,7;14,7;15,1;-22,0;30,1;1337
2023-10-06 01:00:00;10,8;101942;92;0,0073;0,0;1,4;189;2,0;-0,22;-1,38;0;0;nan;25,4;24,8;30,8;27,3;12,2;13,6;14,6;15,1;-22,1;30,0;1338
2023-10-06 02:00:00;10,4;101915;93;0,0072;0,0;1,4;184;1,8;-0,1;-1,38;0;0;nan;25,4;24,8;30,8;27,3;12,0;13,4;14,5;15,1;-22,1;29,8;1340
2023-10-06 03:00:00;10,3;101914;93;0,0071;0,0;1,2;182;1,7;-0,05;-1,22;0;0;nan;25,4;24,8;30,8;27,3;11,9;13,3;14,5;15,1;-22,1;29,9;1338
2023-10-06 04:00:00;10,4;101895;93;0,0072;0,0;1,6;189;2,3;-0,24;-1,56;0;0;nan;25,4;24,8;30,8;27,3;11,7;13,2;14,4;15,1;-22,1;29,7;1342
2023-10-06 05:00:00;10,2;101868;93;0,0071;0,0;1,6;187;2,1;-0,19;-1,56;2;0;nan;25,4;24,8;30,8;27,3;11,6;13,1;14,4;15,1;-22,1;29,9;1339
2023-10-06 06:00:00;11,5;101870;92;0,0076;0,02;1,9;197;3,1;-0,58;-1,83;83;0;nan;25,4;24,8;30,8;27,3;11,6;13,0;14,3;15,1;-22,1;30,2;1335
2023-10-06 07:00:00;13,5;101880;89;0,0084;0,0;3,0;207;4,9;-1,4;-2,7;168;0;nan;25,4;24,8;30,8;27,3;11,9;12,9;14,3;15,1;-22,1;30,0;1338
2023-10-06 08:00:00;14,9;101858;84;0,0087;0,0;3,1;216;5,4;-1,84;-2,51;260;0;nan;25,5;24,8;30,8;27,3;12,3;12,9;14,2;15,1;-22,2;30,5;1331
2023-10-06 09:00:00;16,6;101845;76;0,0087;0,0;3,7;238;6,8;-3,08;-1,93;383;0;nan;25,5;24,8;30,8;27,3;12,8;13,0;14,1;15,0;-22,2;31,0;1326
2023-10-06 10:00:00;17,3;101822;72;0,0087;0,0;3,6;240;6,8;-3,06;-1,79;435;0;nan;25,4;24,7;30,8;27,3;13,6;13,2;14,1;15,0;-22,2;30,8;1328
2023-10-06 11:00:00;17,7;101813;70;0,0087;0,0;4,0;236;7,8;-3,33;-2,22;376;0;nan;25,4;24,7;30,8;27,3;14,3;13,5;14,1;15,0;-22,2;30,8;1328
2023-10-06 12:00:00;18,4;101760;68;0,0089;0,0;3,9;240;7,2;-3,31;-1,9;393;0;nan;25,3;24,7;30,7;27,2;14,9;13,8;14,1;15,0;-22,3;31,1;1324
2023-10-06 13:00:00;18,7;101732;66;0,0088;0,0;3,4;236;5,7;-2,8;-1,87;308;0;nan;25,3;24,7;30,7;27,2;15,3;14,2;14,1;15,0;-22,3;30,4;1333
2023-10-06 14:00:00;19,2;101705;67;0,0091;0,0;3,2;239;5,8;-2,72;-1,62;307;0;nan;25,2;24,7;30,7;27,2;15,4;14,4;14,2;15,0;-22,3;30,0;1338
2023-10-06 15:00:00;18,9;101695;67;0,009;0,0;3,0;236;5,6;-2,48;-1,64;170;0;nan;25,1;24,7;30,7;27,2;15,4;14,6;14,3;14,9;-22,4;29,7;1341
2023-10-06 16:00:00;17,9;101712;69;0,0087;0,0;2,5;237;4,4;-2,09;-1,34;53;0;nan;25,0;24,7;30,7;27,2;15,1;14,8;14,3;14,9;-22,4;30,0;1338
2023-10-06 17:00:00;16,2;101725;76;0,0086;0,0;1,7;221;3,3;-1,1;-1,28;2;0;nan;25,0;24,7;30,7;27,2;14,7;14,8;14,4;14,9;-22,4;29,9;1339
2023-10-06 18:00:00;15,4;101714;80;0,0085;0,0;2,0;206;3,6;-0,86;-1,79;0;0;nan;25,0;24,7;30,7;27,2;14,4;14,7;14,4;14,9;-22,5;30,1;1337
2023-10-06 19:00:00;15,4;101708;79;0,0085;0,0;2,8;211;4,8;-1,44;-2,37;0;0;nan;24,9;24,7;30,7;27,2;14,1;14,6;14,5;14,9;-22,5;29,9;1339
2023-10-06 20:00:00;15,8;101690;77;0,0085;0,0;2,8;224;5,7;-1,96;-2,01;0;0;nan;24,9;24,7;30,7;27,2;13,9;14,5;14,5;14,9;-22,5;30,0;1338
2023-10-06 21:00:00;15,8;101704;77;0,0085;0,0;3,1;239;5,7;-2,64;-1,61;0;0;nan;24,9;24,7;30,7;27,2;13,8;14,4;14,5;14,9;-22,5;29,6;1343
2023-10-06 22:00:00;14,9;101722;79;0,0082;0,0;2,0;235;4,2;-1,64;-1,16;0;0;nan;24,9;24,6;30,7;27,2;13,6;14,3;14,5;14,9;-22,6;29,5;1344
2023-10-06 23:00:00;14,2;101712;83;0,0082;0,0;2,2;236;4,0;-1,76;-1,21;0;0;nan;24,9;24,6;30,7;27,2;13,4;14,2;14,5;14,9;-22,6;29,5;1344
2023-10-07 00:00:00;14,0;101697;85;0,0083;0,0;2,5;235;4,3;-2,05;-1,42;0;0;nan;24,8;24,6;30,7;27,2;13,3;14,1;14,5;14,9;-22,6;29,4;1345
2023-10-07 01:00:00;14,0;101656;86;0,0084;0,0;2,8;235;5,0;-2,27;-1,57;0;0;nan;24,8;24,6;30,7;27,2;13,2;14,0;14,5;14,9;-22,6;29,1;1349
2023-10-07 02:00:00;14,3;101646;87;0,0087;0,0;3,4;236;5,8;-2,77;-1,89;0;0;nan;24,8;24,6;30,7;27,2;13,2;13,9;14,5;14,9;-22,7;29,3;1347
2023-10-07 03:00:00;14,5;101640;88;0,0089;0,0;3,0;238;4,9;-2,58;-1,62;0;0;nan;24,8;24,6;30,7;27,2;13,2;13,9;14,5;14,9;-22,7;29,1;1349
2023-10-07 04:00:00;14,7;101612;88;0,0091;0,0;3,2;236;6,4;-2,63;-1,75;0;0;nan;24,8;24,6;30,7;27,2;13,4;13,9;14,4;14,9;-22,7;29,3;1346
2023-10-07 05:00:00;14,7;101582;88;0,0091;0,0;3,4;228;6,0;-2,46;-2,23;0;0;nan;24,8;24,6;30,7;27,2;13,4;13,9;14,4;14,9;-22,7;29,3;1346
2023-10-07 06:00:00;15,0;101626;88;0,0092;0,0;3,4;236;6,2;-2,84;-1,92;33;0;nan;24,7;24,6;30,7;27,2;13,5;13,9;14,4;14,9;-22,7;29,1;1349
2023-10-07 07:00:00;15,4;101658;88;0,0094;0,0;3,6;236;6,2;-2,98;-2,04;60;0;nan;24,7;24,6;30,7;27,2;13,7;13,9;14,4;14,9;-22,8;29,3;1346
2023-10-07 08:00:00;15,9;101663;88;0,0098;0,0;3,9;238;6,2;-3,29;-2,05;180;0;nan;24,7;24,6;30,7;27,2;13,9;14,0;14,4;14,9;-22,8;28,9;1351
2023-10-07 09:00:00;17,0;101622;87;0,0103;0,0;3,9;237;6,4;-3,24;-2,1;298;0;nan;24,7;24,5;30,7;27,2;14,3;14,1;14,4;14,9;-22,8;28,6;1355
2023-10-07 10:00:00;18,5;101570;81;0,0106;0,0;4,0;237;7,0;-3,33;-2,17;427;0;nan;24,7;24,5;30,6;27,2;14,9;14,3;14,4;14,9;-22,8;28,9;1352
2023-10-07 11:00:00;19,9;101562;74;0,0106;0,0;3,8;246;6,6;-3,46;-1,53;457;0;nan;24,6;24,5;30,6;27,2;15,6;14,5;14,4;14,9;-22,8;28,7;1354
2023-10-07 12:00:00;21,0;101545;69;0,0106;0,0;4,0;249;7,4;-3,68;-1,43;430;0;nan;24,6;24,5;30,6;27,2;16,3;14,8;14,4;14,8;-22,9;28,7;1355
2023-10-07 13:00:00;21,6;101566;65;0,0103;0,0;4,0;254;8,0;-3,83;-1,11;352;0;nan;24,5;24,5;30,6;27,2;16,8;15,1;14,4;14,8;-22,9;28,9;1352
2023-10-07 14:00:00;22,0;101535;63;0,0102;0,0;3,2;253;6,4;-3,06;-0,94;271;0;nan;24,5;24,5;30,6;27,2;16,9;15,4;14,5;14,8;-23,0;28,4;1359
2023-10-07 15:00:00;21,7;101543;62;0,0099;0,0;3,4;259;6,4;-3,28;-0,65;158;0;nan;24,4;24,5;30,6;27,2;16,8;15,6;14,6;14,8;-23,0;29,0;1351
2023-10-07 16:00:00;20,8;101588;65;0,0098;0,0;2,4;256;4,9;-2,36;-0,58;36;0;nan;24,3;24,5;30,6;27,2;16,5;15,7;14,7;14,8;-23,0;28,8;1353
2023-10-07 17:00:00;20,1;101600;67;0,0097;0,0;2,1;249;3,9;-1,94;-0,74;1;0;nan;24,2;24,5;30,6;27,2;16,1;15,8;14,8;14,8;-23,0;28,8;1353
2023-10-07 18:00:00;19,5;101640;71;0,0099;0,0;1,9;248;4,0;-1,76;-0,72;0;0;nan;24,2;24,5;30,6;27,2;15,9;15,7;14,8;14,8;-23,0;28,5;1357
2023-10-07 19:00:00;19,1;101637;74;0,01;0,0;2,9;237;5,9;-2,43;-1,58;0;0;nan;24,2;24,5;30,6;27,2;15,7;15,6;14,9;14,8;-23,1;28,3;1359
2023-10-07 20:00:00;19,2;101622;72;0,0098;0,0;3,4;241;6,6;-3,0;-1,68;0;0;nan;24,2;24,5;30,6;27,2;15,5;15,5;14,9;14,8;-23,1;28,1;1362
2023-10-07 21:00:00;18,8;101700;73;0,0097;0,0;2,5;261;5,8;-2,38;-0,39;0;0;nan;24,1;24,4;30,6;27,2;15,4;15,5;15,0;14,8;-23,1;28,6;1356
2023-10-07 22:00:00;18,5;101710;74;0,0097;0,0;2,8;249;5,1;-2,55;-1,0;0;0;nan;24,0;24,4;30,6;27,2;15,3;15,4;15,0;14,8;-23,2;28,6;1356
2023-10-07 23:00:00;18,0;101708;75;0,0095;0,0;3,3;237;5,5;-2,78;-1,82;0;0;nan;24,0;24,4;30,6;27,2;15,2;15,4;15,0;14,8;-23,2;28,2;1361
2023-10-08 00:00:00;17,3;101752;77;0,0093;0,0;2,7;240;4,7;-2,35;-1,34;0;0;nan;24,0;24,4;30,6;27,2;15,1;15,3;15,0;14,9;-23,2;28,2;1360
2023-10-08 01:00:00;16,5;101756;76;0,0088;0,0;1,8;245;3,2;-1,67;-0,78;0;0;nan;24,0;24,4;30,6;27,2;14,9;15,2;15,0;14,9;-23,2;28,7;1354
2023-10-08 02:00:00;15,9;101743;76;0,0084;0,0;1,7;231;2,8;-1,29;-1,03;0;0;nan;23,9;24,4;30,6;27,2;14,7;15,1;15,0;14,9;-23,3;29,0;1350
2023-10-08 03:00:00;15,8;101783;76;0,0083;0,0;1,1;238;2,5;-0,89;-0,56;0;0;nan;23,9;24,4;30,6;27,2;14,5;15,0;15,0;14,9;-23,3;28,8;1353